Simultaneous Nadir Overpasses (SNOs) Predictions

Prediction of SNOs between GOES-17 and NOAA-20 Satellite Orbit:

Table of predicted SNOs for the next 14.0 days since TLE Epoch: 1/8/2022
Index Date Time (GOES-17) GOES-17 Lat,Lon NOAA-20 Lat,Lon Distance(km) Time Diff (sec)
1 01/08/2022 22:16:58 0.03,-137.21 0.99,-132.88 493.69 80
2 01/10/2022 10:38:44 -0.03,-137.21 0.17,-138.14 105.90 80
3 01/11/2022 10:19:57 -0.02,-137.20 -0.81,-133.60 410.61 80
4 01/12/2022 22:39:13 0.01,-137.19 -0.34,-138.90 194.54 80
5 01/13/2022 22:23:06 -0.00,-137.18 0.63,-134.35 321.83 80
6 01/15/2022 10:42:11 0.01,-137.16 0.58,-139.60 278.80 80
7 01/16/2022 10:23:26 0.01,-137.15 -0.45,-135.07 236.66 80
8 01/17/2022 22:45:20 -0.01,-137.11 -0.75,-140.36 370.21 80
9 01/18/2022 22:29:15 -0.01,-137.10 0.29,-135.83 144.93 80
10 01/20/2022 10:51:00 0.01,-137.07 0.92,-141.08 456.97 80
11 01/21/2022 10:29:35 0.01,-137.05 -0.11,-136.55 57.86 80
